Regional Weather Roundup
Issued by NWS Charleston, SC

Current Version | Previous Version | Graphics & Text | Print | Product List | Glossary On
Versions: 1 2 3 4 5 6 7 8 9 10 11 12 13 14 15 16 17 18 19 20 21 22 23 24 25 26 27 28 29 30 31 32 33 34 35 36 37 38 39 40 41 42 43 44 45 46 47 48 49 50
000
ASUS42 KCHS 251513
RWRCHS

REGIONAL WEATHER ROUNDUP
NATIONAL WEATHER SERVICE CHARLESTON SC
1100 AM EDT WED MAY 25 2016

NOTE: "FAIR" INDICATES FEW OR NO CLOUDS BELOW 12,000 FEET WITH NO
SIGNIFICANT WEATHER AND/OR OBSTRUCTIONS TO VISIBILITY.

NOT ALL STATIONS ARE QUALITY CONTROLLED. USE DATA WITH CAUTION...
ESPECIALLY DEWPOINT OBSERVATIONS.

SCZ027-030-031-034>040-042>050-251600-
...SOUTHEAST SOUTH CAROLINA...

CITY           SKY/WX    TMP DP  RH WIND       PRES   REMARKS
N CHARLESTON   MOSUNNY   83  61  47 SW8       30.25S
WATERFRONT PRK   N/A     78  67  69 S6        30.23S
MOUNT PLEASANT FAIR      82  66  57 SW8       30.25F
JOHNS ISLAND   FAIR      82  66  57 SW7       30.25S
PINOPOLIS        N/A     81  64  57 W7        30.18R
MONCKS CORNER  FAIR      79  57  47 W3        30.25S
SUMMERVILLE    NOT AVBL
BEAUFORT MCAS  MOSUNNY   82  64  54 S8        30.25S
BEAUFORT ARPT  FAIR      79  63  57 CALM      30.25S
HILTON HEAD IS SUNNY     86  68  54 S12       30.26F
WALTERBORO     MOSUNNY   82  63  51 SW7       30.26S
ALLENDALE      FAIR      81  63  54 CALM      30.24S

...SOUTHERN MIDLANDS AND PEE DEE...

CITY           SKY/WX    TMP DP  RH WIND       PRES   REMARKS
GEORGETOWN     FAIR      81  61  50 W8        30.26S
KINGSTREE      FAIR      79  61  53 S3        30.24F
ORANGEBURG     SUNNY     81  63  54 VRB7      30.25S
BARNWELL       FAIR      84  64  51 SW6       30.25S
AIKEN          FAIR      79  61  53 SW6       30.28S
MANNING        FAIR      79  61  53 CALM      30.24F
COLUMBIA       MOSUNNY   84  59  42 VRB5      30.23S
SUMTER         SUNNY     80  64  58 VRB6      30.22S
FLORENCE       SUNNY     81  63  54 W6        30.24S
MYRTLE BEACH   SUNNY     82  61  47 SW9       30.26F
N MYRTLE BEACH SUNNY     79  66  64 S9        30.24F

$$

GAZ063-065-086>088-099>101-113>116-118-119-134>141-150-251600-
...SOUTHEAST GEORGIA...

CITY           SKY/WX    TMP DP  RH WIND       PRES   REMARKS
SAVANNAH ARPT  MOSUNNY   82  62  50 VRB7      30.25S
HUNTER AAF     SUNNY     82  65  56 W8        30.23S
FORT STEWART   SUNNY     80  64  56 S2        30.23S
STATESBORO     SUNNY     83  64  53 W5        30.25S
SYLVANIA       SUNNY     84  62  47 W5        30.26R
CLAXTON        FAIR      82  63  51 S6        30.25S

...CSRA...CENTRAL AND FAR SOUTHEAST GEORGIA...

CITY           SKY/WX    TMP DP  RH WIND       PRES   REMARKS
THOMSON        SUNNY     83  66  56 SW7       30.29S
AUGUSTA-BUSH   SUNNY     81  62  52 VRB3      30.24R
AUGUSTA-DANIEL SUNNY    N/A N/A N/A MISG      30.26R
SWAINSBORO     FAIR      81  59  47 W6        30.26S
VIDALIA        SUNNY     81  61  50 S8        30.25S
EASTMAN        FAIR      82  59  44 SW7       30.27S
HAZLEHURST     FAIR      83  60  45 CALM      30.23F
ALMA           SUNNY     82  60  47 SW9       30.24S
WAYCROSS       SUNNY     82  61  49 SW5       30.25R
JESUP          FAIR      79  61  53 SW3       30.25R
BAXLEY         FAIR      82  59  44 S8        30.24F
BRUNSWICK      SUNNY     84  63  48 E9        30.26S
SAINT SIMONS   SUNNY     80  67  64 SE8       30.25R

$$

SCZ027-028-034-036>038-045-046-048>050-GAZ119-141-251600-
...LAKE AND SUPPLEMENTAL COASTAL OBSERVATIONS...

STATION/POSITION TIME  TEMP    WIND        PRES    WAVE   SWELL
                       AIR SEA DIR/SP/G            HT/PER HT/PER/DIR
                 (UTC) (F)     (DEG/KT/KT) (MB)    (FT/S) (FT/S/D)
WINYAH BAY       NOT AVBL
LAKE MURRAY      1400   77     190/  2/  3 1023.4S
ACE BASIN NERRS  NOT AVBL
FORT PULASKI     NOT AVBL
SAPELO ISLAND    1400   81     170/  3     1024.0S

$$

ANZ835-935-AMZ111-154-330-350-352-354-370-450-454-472-251600-
...C-MAN AND BUOY OBSERVATIONS...

STATION/POSITION TIME  TEMP    WIND        PRES    WAVE   SWELL
                       AIR SEA DIR/SP/G            HT/PER HT/PER/DIR
                 (UTC) (F)     (DEG/KT/KT) (MB)    (FT/S) (FT/S/D)
BUOY 41004       1450   77 77  230/  2/  4 1024.4S   2/ 9   2/ 9
BUOY 41008       1450   76 76  160/  4/  4 1024.4R   2/ 9   2/ 90/ 9
FOLLY BEACH CMAN 1500   76     180/  8/  8 1024.7F
CAPERS NEARSHORE 1408   75 75  220/  4/  6 1024.5R
FRIPP NEARSHORE  1408   75 75  160/  2/  4 1024.0R


STATION/POSITION TIME  TEMP    WIND        PRES    WAVE   SWELL
                       AIR SEA DIR/SP/G            HT/PER HT/PER/DIR
                 (UTC) (F)     (DEG/KT/KT) (MB)    (FT/S) (FT/S/D)
5E ST. MARYS GA  1421      78                N/A     2/ 8
FRYING PAN BUOY  1400   75 76  260/  8/ 10 1024.5R
BUOY 41025       1450   68 68  280/  8/  8 1023.8S   3/ 9   2/110/ 9
CAPE LOOKOUT NC  1500   73     250/  9/ 11 1023.9R
BUOY 41002       1450   74 78   60/  8/ 10 1025.1R   3/ 9   3/ 70/ 9
BUOY 41010       1420   76 78   40/  6/  8 1024.0R
ST AUGUSTINE FL  1500   77 78  140/ 10/ 10 1025.0R


$$




USA.gov is the U.S. government's official web portal to all federal, state and local government web resources and services.